Regional Weather Roundup
Issued by NWS

Home | Current Version | Previous Version | Text Only | Print | Product List | Glossary On
Versions: 1 2 3 4 5 6 7 8 9 10 11 12 13 14 15 16 17 18 19 20 21 22 23 24 25 26 27 28 29 30 31 32 33 34 35 36 37 38 39 40 41 42 43 44 45 46 47 48 49 50
000
ASUS44 KMEG 030500
RWRTN
TENNESSEE HOURLY STATE WEATHER ROUNDUP
NATIONAL WEATHER SERVICE MEMPHIS TN
1200 AM CDT WED SEP 03 2014

TNZ002-004-019-021-049-052-054-088>092-030600-
WEST TENNESSEE

CITY           SKY/WX    TMP DP  RH WIND       PRES   REMARKS
MEMPHIS INTL   MOCLDY    77  70  79 SE5       30.02S
NWS MEMPHIS      N/A     74 N/A N/A MISG        N/A
JACKSON        CLOUDY    72  70  93 CALM        N/A
DYERSBURG      CLOUDY    72  61  68 CALM      30.02S
UNION CITY     CLEAR     70  70 100 CALM      30.00F
PARIS          CLEAR     70  70 100 CALM      30.02S
SAVANNAH       PTCLDY    73  73 100 S5        30.01F
$$

TNZ008-025-027-028-033-062-065-066-030600-
NORTH MIDDLE TENNESSEE

CITY           SKY/WX    TMP DP  RH WIND       PRES   REMARKS
NASHVILLE      CLOUDY    74  72  93 S6        30.03S
CLARKSVILLE    CLOUDY    73  71  93 CALM      30.02S
COOKEVILLE       N/A     72  70  94 S6        30.05F
CROSSVILLE     TSTM      70  66  87 S3        30.11S
$$

TNZ061-075-076-078-094-096-097-030600-
SOUTH MIDDLE TENNESSEE

CITY           SKY/WX    TMP DP  RH WIND       PRES   REMARKS
WINCHESTER     CLOUDY    73  72  94 CALM      30.05F
SHELBYVILLE    CLEAR     75  73  94 CALM      30.04F
$$

TNZ017-018-042-046-047-030600-
NORTHEAST TENNESSEE

CITY           SKY/WX    TMP DP  RH WIND       PRES   REMARKS
TRI CITIES     CLOUDY    68  65  90 CALM      30.10F
ELIZABETHTON   CLEAR     64  64 100 NE3       30.11F
$$

TNZ012-013-036-069-073-074-030600-
CENTRAL EAST TENNESSEE

CITY           SKY/WX    TMP DP  RH WIND       PRES   REMARKS
KNOXVILLE      CLOUDY    71  69  93 CALM      30.06R
OAK RIDGE      CLOUDY    72  70  93 CALM      30.09F
GATLINBURG     MOCLDY    68  66  94 CALM      30.05F
$$

TNZ083-085-099-030600-
SOUTHEAST TENNESSEE

CITY           SKY/WX    TMP DP  RH WIND       PRES   REMARKS
CHATTANOOGA    CLOUDY    73  70  90 NE7       30.05F
$$

SKY/WX REPORTED AS FAIR MEANS FEW OR NO CLOUDS BELOW
12 THOUSAND FEET.




USA.gov is the U.S. government's official web portal to all federal, state and local government web resources and services.